CW7986 Weather Reports


Display with metric or nautical units.
time (UTC)temp
F
wind
direction
speed
MPH
gust
MPH
rain 1hr
in
rain 24hr
in
rain mn
in
humidity
%
barometer
mb
20210613111514 82 284 3.0 9.0 0.00 0.02 0.00 81
20210613110513 82 284 4.0 9.0 0.00 0.05 0.00 81
20210613110013 82 281 3.0 7.0 0.00 0.05 0.00 81
20210613105512 82 283 3.0 10.0 0.00 0.05 0.00 81
20210613105012 82 284 3.0 10.0 0.00 0.05 0.00 81
20210613104511 82 280 4.0 12.0 0.00 0.05 0.00 80
20210613104506 81 261 4.0 0.0 0.00 0.00 0.00 80 1010.0
20210613104011 82 283 4.0 12.0 0.00 0.05 0.00 80
20210613103511 82 285 4.0 10.0 0.00 0.05 0.00 81
20210613103121 81 277 3.0 0.0 0.00 0.00 0.00 80 1009.9
20210613103010 82 283 3.0 11.0 0.00 0.05 0.00 80
20210613102511 82 284 3.0 11.0 0.00 0.05 0.00 81
20210613102010 82 289 4.0 10.0 0.00 0.05 0.00 81
20210613101543 81 286 4.0 0.0 0.00 0.00 0.00 81 1009.6
20210613101510 82 291 4.0 10.0 0.00 0.05 0.00 81
20210613101009 82 288 4.0 7.0 0.00 0.05 0.00 81
20210613100509 82 283 3.0 6.0 0.00 0.05 0.00 81
20210613100009 82 283 3.0 6.0 0.00 0.05 0.00 80
20210613095509 82 288 4.0 13.0 0.00 0.05 0.00 80
20210613095008 82 286 5.0 13.0 0.00 0.05 0.00 80
20210613094507 82 287 4.0 8.0 0.00 0.05 0.00 80
20210613094008 82 289 4.0 11.0 0.00 0.05 0.00 80
20210613093507 81 284 5.0 11.0 0.00 0.05 0.00 80
20210613093110 81 259 4.0 0.0 0.00 0.00 0.00 81 1009.4
20210613093006 81 281 4.0 10.0 0.00 0.05 0.00 81
20210613092506 81 283 4.0 11.0 0.00 0.05 0.00 81
20210613092006 81 280 3.0 11.0 0.00 0.05 0.00 81
20210613091506 81 285 3.0 9.0 0.00 0.05 0.00 81
20210613091005 81 289 3.0 6.0 0.00 0.05 0.00 81
20210613090505 81 287 4.0 7.0 0.00 0.05 0.00 81
20210613090005 81 286 3.0 7.0 0.00 0.05 0.00 81
20210613085504 81 282 3.0 7.0 0.00 0.05 0.00 81
20210613085004 81 283 3.0 7.0 0.00 0.05 0.00 81
20210613084504 81 283 3.0 7.0 0.00 0.05 0.00 81
20210613084105 81 285 3.0 7.0 0.00 0.05 0.00 81
20210613083604 81 283 3.0 7.0 0.00 0.05 0.00 81
20210613083113 81 260 2.0 0.0 0.00 0.00 0.00 81 1008.6
20210613083103 81 283 2.0 7.0 0.00 0.05 0.00 81
20210613082603 81 283 2.0 7.0 0.00 0.05 0.00 82
20210613082103 81 283 2.0 6.0 0.00 0.05 0.00 82
20210613081603 81 284 3.0 6.0 0.00 0.05 0.00 81
20210613081102 81 285 3.0 6.0 0.00 0.05 0.00 81
20210613080603 81 284 2.0 6.0 0.00 0.05 0.00 81
20210613080126 81 272 3.0 0.0 0.00 0.00 0.00 80 1008.6
20210613080101 81 283 3.0 6.0 0.00 0.05 0.00 80
20210613075601 81 283 3.0 6.0 0.00 0.05 0.00 80
20210613075101 81 285 3.0 7.0 0.00 0.05 0.00 79
20210613074618 81 296 3.0 0.0 0.00 0.00 0.00 80 1008.9
20210613074600 81 285 3.0 7.0 0.00 0.05 0.00 80
20210613074100 81 282 2.0 5.0 0.00 0.05 0.00 79
20210613073559 81 281 2.0 5.0 0.00 0.05 0.00 79
20210613073112 81 271 3.0 0.0 0.00 0.00 0.00 78 1008.9
20210613073059 81 281 3.0 6.0 0.00 0.05 0.00 78
20210613072600 82 280 2.0 6.0 0.00 0.05 0.00 79
20210613072059 82 284 3.0 7.0 0.00 0.05 0.00 79
20210613071558 82 287 3.0 7.0 0.00 0.05 0.00 79
20210613071058 82 287 3.0 7.0 0.00 0.05 0.00 79
20210613070240 81 330 4.0 0.0 0.00 0.00 0.00 79 1009.3
20210613070058 82 287 4.0 5.0 0.00 0.05 0.00 79
20210613065557 82 293 4.0 6.0 0.00 0.05 0.00 79
20210613065057 82 288 3.0 7.0 0.00 0.05 0.00 79
20210613064557 82 285 4.0 7.0 0.00 0.05 0.00 79
20210613064057 82 285 4.0 7.0 0.00 0.05 0.00 78
20210613063556 82 286 4.0 7.0 0.00 0.05 0.00 78
20210613063055 82 286 4.0 7.0 0.00 0.05 0.00 79
20210613063037 81 284 4.0 0.0 0.00 0.00 0.00 79 1009.5
20210613062555 82 283 3.0 6.0 0.00 0.05 0.00 79
20210613062054 82 284 3.0 6.0 0.00 0.05 0.00 79
20210613061554 82 283 2.0 5.0 0.00 0.05 0.00 80
20210613061054 82 285 2.0 5.0 0.00 0.05 0.00 80
20210613060554 82 284 2.0 5.0 0.00 0.05 0.00 79
20210613060053 82 284 2.0 8.0 0.00 0.05 0.00 79
20210613055554 82 289 2.0 8.0 0.00 0.05 0.00 79
20210613055053 82 288 2.0 8.0 0.00 0.05 0.00 80
20210613054554 82 295 3.0 0.0 0.00 0.00 0.00 79 1010.0
20210613054552 82 288 3.0 9.0 0.00 0.05 0.00 79
20210613054052 82 289 3.0 9.0 0.00 0.05 0.00 79
20210613053551 82 285 3.0 6.0 0.00 0.05 0.00 79
20210613053051 82 280 2.0 5.0 0.00 0.05 0.00 79
20210613052551 82 280 3.0 5.0 0.00 0.05 0.00 79
20210613052051 82 280 3.0 5.0 0.00 0.05 0.00 78
20210613051550 82 281 4.0 7.0 0.00 0.05 0.00 78
20210613051050 82 286 3.0 7.0 0.00 0.05 0.00 78
20210613050550 82 287 3.0 8.0 0.00 0.05 0.00 78
20210613050050 82 289 4.0 8.0 0.00 0.05 0.00 78
20210613045549 82 290 4.0 9.0 0.00 0.05 0.00 79
20210613045048 82 284 4.0 10.0 0.00 0.05 0.00 79
20210613044048 82 287 4.0 9.0 0.00 0.05 0.00 80
20210613043547 82 286 4.0 7.0 0.00 0.05 0.00 80
20210613043047 82 287 4.0 7.0 0.00 0.05 0.00 80
20210613043044 82 268 4.0 0.0 0.00 0.00 0.00 80 1010.8
20210613042547 82 288 3.0 7.0 0.00 0.05 0.00 81
20210613042046 83 291 4.0 9.0 0.00 0.05 0.00 82
20210613041546 83 293 4.0 9.0 0.00 0.05 0.00 82
20210613041045 82 293 4.0 9.0 0.00 0.05 0.00 82
20210613040545 82 293 4.0 9.0 0.00 0.05 0.00 82
20210613040046 82 290 4.0 9.0 0.00 0.05 0.00 83
20210613040044 82 302 4.0 0.0 0.00 0.00 0.00 83 1011.2
20210613035545 82 288 4.0 9.0 0.00 0.05 0.05 82
20210613035044 82 285 4.0 7.0 0.00 0.05 0.05 82
20210613034800 82 305 3.0 0.0 0.00 0.00 0.05 82 1011.0
20210613034544 82 286 3.0 7.0 0.00 0.05 0.05 82
20210613034044 82 286 3.0 5.0 0.00 0.05 0.05 82
20210613033543 82 283 2.0 4.0 0.00 0.05 0.05 82
20210613033043 82 289 1.0 3.0 0.00 0.05 0.05 82
20210613032543 82 286 1.0 3.0 0.00 0.05 0.05 82
20210613032042 82 285 1.0 3.0 0.00 0.05 0.05 82
20210613031542 82 281 1.0 3.0 0.00 0.05 0.05 82
20210613031042 83 280 1.0 3.0 0.00 0.05 0.05 82
20210613030541 83 284 1.0 3.0 0.00 0.05 0.05 82
20210613030041 83 286 1.0 3.0 0.00 0.05 0.05 82
20210613030030 82 286 1.0 0.0 0.00 0.00 0.05 82 1010.8
20210613025541 83 276 1.0 3.0 0.00 0.05 0.05 82
20210613025040 83 281 2.0 4.0 0.00 0.05 0.05 82
20210613024542 83 283 3.0 6.0 0.00 0.05 0.05 82
20210613024040 83 284 3.0 6.0 0.00 0.05 0.05 82
20210613023540 83 284 2.0 4.0 0.00 0.05 0.05 82
20210613023115 82 284 2.0 0.0 0.00 0.00 0.05 82 1010.4
20210613023039 83 282 2.0 7.0 0.00 0.05 0.05 82
20210613022555 83 285 2.0 7.0 0.00 0.05 0.05 82
20210613022038 83 291 1.0 4.0 0.00 0.05 0.05 82
20210613021614 82 273 1.0 0.0 0.00 0.00 0.05 82 1010.0
20210613021038 83 277 1.0 3.0 0.00 0.05 0.05 82
20210613020537 83 277 1.0 3.0 0.00 0.05 0.05 82
20210613020037 83 286 1.0 4.0 0.00 0.05 0.05 82
20210613015537 83 287 1.0 4.0 0.00 0.05 0.05 82
20210613015036 83 288 2.0 5.0 0.00 0.05 0.05 81
20210613014536 83 288 2.0 5.0 0.00 0.05 0.05 81
20210613014508 83 288 2.0 0.0 0.00 0.00 0.05 81 1010.0
20210613014035 83 280 2.0 4.0 0.00 0.05 0.05 81
20210613013535 83 281 2.0 4.0 0.00 0.05 0.05 81
20210613013240 83 288 2.0 0.0 0.00 0.00 0.05 81 1009.9
20210613013036 84 285 2.0 5.0 0.00 0.05 0.05 81
20210613012536 84 286 3.0 7.0 0.00 0.05 0.05 81
20210613012034 84 288 4.0 8.0 0.00 0.05 0.05 80
20210613011535 84 286 3.0 8.0 0.00 0.05 0.05 80
20210613011524 83 290 3.0 0.0 0.00 0.00 0.05 80 1009.6
20210613011034 84 293 3.0 6.0 0.00 0.05 0.05 80
20210613010533 84 296 3.0 9.0 0.00 0.05 0.05 81
20210613010107 83 313 2.0 0.0 0.00 0.00 0.05 80 1009.5
20210613010033 84 283 2.0 9.0 0.00 0.05 0.05 80
20210613005532 84 279 3.0 6.0 0.00 0.05 0.05 80
20210613005032 84 284 4.0 8.0 0.00 0.05 0.05 79
20210613004545 84 284 4.0 0.0 0.00 0.00 0.05 80 1009.5
20210613004532 84 287 4.0 10.0 0.00 0.05 0.05 80
20210613004031 84 287 3.0 10.0 0.00 0.05 0.05 80
20210613003531 84 283 2.0 4.0 0.00 0.05 0.05 79
20210613003031 84 294 3.0 7.0 0.00 0.05 0.05 79
20210613003002 84 281 3.0 0.0 0.00 0.00 0.05 79 1009.5
20210613002531 84 292 4.0 7.0 0.00 0.05 0.05 79
20210613002030 84 287 4.0 7.0 0.00 0.05 0.05 78
20210613001530 84 289 4.0 7.0 0.00 0.05 0.05 77
20210613001030 85 291 4.0 9.0 0.00 0.05 0.05 77
20210613000529 85 290 4.0 9.0 0.00 0.05 0.05 77
20210613000029 85 287 4.0 9.0 0.00 0.05 0.05 76
20210612235528 85 288 4.0 12.0 0.00 0.05 0.05 76
20210612235028 85 288 4.0 12.0 0.00 0.05 0.05 75
20210612234528 86 286 4.0 7.0 0.00 0.05 0.05 75
20210612234029 86 284 4.0 10.0 0.00 0.05 0.05 75
20210612233527 86 292 5.0 11.0 0.00 0.05 0.05 74
20210612233043 86 300 5.0 11.0 0.00 0.05 0.05 74
20210612232527 86 294 5.0 11.0 0.00 0.05 0.05 74
20210612232026 86 287 5.0 11.0 0.00 0.05 0.05 74
20210612231526 86 285 5.0 10.0 0.00 0.05 0.05 74
20210612231026 86 284 4.0 10.0 0.00 0.05 0.05 74
20210612230525 87 282 3.0 9.0 0.00 0.05 0.05 74
20210612230025 87 294 4.0 9.0 0.00 0.05 0.05 74
20210612225524 87 297 4.0 9.0 0.00 0.05 0.05 74
20210612225026 87 291 5.0 13.0 0.00 0.05 0.05 75
20210612224524 87 294 6.0 13.0 0.00 0.05 0.05 74
20210612224023 87 293 5.0 12.0 0.00 0.05 0.05 74
20210612223523 88 290 4.0 10.0 0.00 0.05 0.05 75
20210612223138 87 285 3.0 0.0 0.00 0.00 0.05 74 1008.9
20210612223029 88 286 3.0 10.0 0.00 0.05 0.05 74
20210612222523 88 294 4.0 10.0 0.00 0.05 0.05 73
20210612222022 88 291 4.0 10.0 0.00 0.05 0.05 74
20210612221522 88 292 4.0 9.0 0.00 0.05 0.05 73
20210612221021 88 294 5.0 12.0 0.00 0.05 0.05 73
20210612220521 88 285 3.0 12.0 0.00 0.05 0.05 73
20210612220020 88 287 2.0 7.0 0.00 0.05 0.05 75
20210612220007 88 299 2.0 0.0 0.00 0.00 0.05 75 1008.8
20210612215520 88 287 3.0 7.0 0.00 0.05 0.05 74
20210612215020 88 285 3.0 8.0 0.00 0.05 0.05 74
20210612214520 88 284 5.0 10.0 0.00 0.05 0.05 73
20210612214020 88 280 4.0 10.0 0.00 0.05 0.05 74
20210612213519 88 276 2.0 6.0 0.00 0.05 0.05 75
20210612213043 88 274 2.0 0.0 0.00 0.00 0.05 75 1008.9
20210612213018 88 269 2.0 5.0 0.00 0.05 0.05 75
20210612212518 88 269 2.0 7.0 0.00 0.05 0.05 75
20210612212018 88 282 4.0 10.0 0.00 0.05 0.05 74
20210612211559 88 290 4.0 0.0 0.00 0.00 0.05 74 1009.0
20210612211518 89 283 4.0 10.0 0.00 0.05 0.05 74
20210612211017 89 283 4.0 10.0 0.00 0.05 0.05 73
20210612210517 88 291 5.0 12.0 0.00 0.05 0.05 74
20210612210017 88 288 6.0 14.0 0.00 0.05 0.05 73
20210612205516 88 286 5.0 14.0 0.00 0.05 0.05 72
20210612205016 89 291 5.0 11.0 0.00 0.05 0.05 73
20210612204522 88 331 6.0 0.0 0.00 0.00 0.05 74 1009.4
20210612204516 89 297 6.0 11.0 0.00 0.05 0.05 74
20210612204015 89 295 5.0 12.0 0.00 0.05 0.05 73
20210612203515 89 287 6.0 12.0 0.00 0.05 0.05 73
20210612203047 88 306 5.0 0.0 0.00 0.00 0.05 73 1009.4
20210612203015 89 288 5.0 13.0 0.00 0.05 0.05 73
20210612202514 89 291 5.0 13.0 0.00 0.05 0.05 74
20210612202014 89 286 5.0 10.0 0.00 0.05 0.05 73
20210612201514 89 281 5.0 13.0 0.00 0.05 0.05 72
20210612200514 89 284 4.0 8.0 0.00 0.05 0.05 73
20210612200256 89 278 3.0 0.0 0.00 0.00 0.05 73 1010.0
20210612200013 89 284 3.0 5.0 0.00 0.05 0.05 73
20210612195513 89 280 3.0 9.0 0.00 0.05 0.05 72
20210612195013 89 283 4.0 9.0 0.00 0.05 0.05 73
20210612194512 89 279 3.0 9.0 0.00 0.05 0.05 73
20210612194011 89 274 3.0 10.0 0.00 0.05 0.05 73
20210612193511 89 274 3.0 10.0 0.00 0.05 0.05 73
20210612193011 89 272 2.0 7.0 0.00 0.05 0.05 74
20210612192511 90 270 3.0 7.0 0.00 0.05 0.05 73
20210612192010 89 280 2.0 10.0 0.00 0.05 0.05 73
20210612191624 89 252 3.0 0.0 0.00 0.00 0.05 73 1010.1
20210612191510 90 284 3.0 10.0 0.00 0.05 0.05 73
20210612191009 89 283 4.0 8.0 0.00 0.05 0.05 74
20210612190508 89 283 3.0 7.0 0.00 0.05 0.05 73
20210612190031 88 287 2.0 0.0 0.00 0.00 0.05 75 1010.2
20210612190008 89 275 2.0 6.0 0.00 0.05 0.05 74
20210612185508 89 283 2.0 7.0 0.00 0.05 0.05 76
20210612185008 88 282 1.0 7.0 0.00 0.05 0.05 75
20210612184508 88 254 1.0 4.0 0.00 0.05 0.05 75
20210612184007 87 236 1.0 4.0 0.00 0.05 0.05 76
20210612183507 87 213 2.0 4.0 0.00 0.05 0.05 76
20210612183007 87 233 1.0 4.0 0.00 0.05 0.05 76
20210612182506 87 239 1.0 4.0 0.00 0.05 0.05 75
20210612182006 87 269 2.0 7.0 0.00 0.05 0.05 74
20210612181505 88 280 2.0 7.0 0.00 0.05 0.05 73
20210612181005 88 265 2.0 7.0 0.00 0.05 0.05 76
20210612180505 88 247 2.0 3.0 0.00 0.05 0.05 75
20210612180005 88 242 2.0 5.0 0.00 0.05 0.05 77
20210612175504 88 260 2.0 5.0 0.00 0.05 0.05 75
20210612175005 89 283 3.0 9.0 0.00 0.05 0.05 74
20210612174503 88 270 2.0 9.0 0.00 0.05 0.05 75
20210612174023 88 235 1.0 3.0 0.00 0.05 0.05 73
20210612173522 88 256 1.0 4.0 0.00 0.05 0.05 75
20210612173054 87 178 1.0 0.0 0.00 0.00 0.05 75 1010.9
20210612173022 88 252 1.0 4.0 0.00 0.05 0.05 75
20210612172522 88 214 1.0 4.0 0.00 0.05 0.05 76
20210612172022 87 210 1.0 4.0 0.00 0.05 0.05 76
20210612171521 87 232 1.0 3.0 0.00 0.05 0.05 77
20210612171508 86 172 1.0 0.0 0.00 0.00 0.05 77 1011.0
20210612171021 87 248 1.0 3.0 0.00 0.05 0.05 76
20210612170521 87 274 1.0 4.0 0.00 0.05 0.05 79
20210612170112 87 233 1.0 0.0 0.00 0.00 0.05 77 1011.1
20210612170020 87 272 1.0 4.0 0.00 0.05 0.05 77
20210612165520 87 251 1.0 4.0 0.00 0.05 0.05 79
20210612165019 87 266 2.0 8.0 0.00 0.05 0.05 79
20210612164653 87 231 2.0 0.0 0.00 0.00 0.05 76 1011.2
20210612164519 87 284 2.0 8.0 0.00 0.05 0.05 76
20210612164020 88 281 2.0 5.0 0.00 0.05 0.05 77
20210612163519 87 247 2.0 5.0 0.00 0.05 0.05 77
20210612163142 87 171 2.0 0.0 0.00 0.00 0.05 75 1011.2
20210612163019 88 263 2.0 5.0 0.00 0.05 0.05 75
20210612162519 88 275 2.0 5.0 0.00 0.05 0.05 76
20210612162019 88 274 2.0 6.0 0.00 0.05 0.05 77
20210612161527 87 278 1.0 0.0 0.00 0.00 0.05 78 1011.4
20210612161517 87 268 1.0 6.0 0.00 0.05 0.05 78
20210612161018 87 222 1.0 4.0 0.00 0.05 0.05 78
20210612160516 87 217 1.0 4.0 0.00 0.05 0.05 79
20210612160121 86 155 1.0 0.0 0.00 0.00 0.05 78 1011.4
20210612160016 87 249 1.0 3.0 0.00 0.05 0.05 78
20210612155516 87 208 1.0 6.0 0.00 0.05 0.05 80
20210612155015 87 207 1.0 6.0 0.01 0.05 0.05 78
20210612154613 86 207 1.0 0.0 0.00 0.00 0.05 78 1011.4
20210612154515 87 222 1.0 3.0 0.01 0.05 0.05 78
20210612154015 87 214 0.0 2.0 0.01 0.05 0.05 78
20210612153514 86 0 0.0 0.0 0.01 0.05 0.05 80
20210612153017 86 209 1.0 0.0 0.00 0.00 0.05 80 1011.5
20210612153014 86 287 1.0 5.0 0.01 0.05 0.05 80
20210612152514 87 286 1.0 5.0 0.01 0.05 0.05 80
20210612152013 86 286 0.0 4.0 0.01 0.05 0.05 84
20210612151537 85 248 1.0 0.0 0.00 0.00 0.05 82 1011.5
20210612151513 86 265 1.0 3.0 0.01 0.05 0.05 85
20210612151013 85 273 2.0 6.0 0.01 0.05 0.05 83
20210612150512 86 283 2.0 6.0 0.01 0.05 0.05 84
20210612150012 85 285 1.0 6.0 0.01 0.05 0.05 85
20210612145512 86 196 1.0 2.0 0.01 0.05 0.05 82
20210612145012 87 230 1.0 3.0 0.00 0.04 0.04 80
20210612144747 86 280 1.0 0.0 0.00 0.00 0.04 79 1011.5
20210612144511 86 251 1.0 3.0 0.00 0.04 0.04 79
20210612144011 86 221 1.0 2.0 0.00 0.04 0.04 80
20210612143510 86 248 1.0 3.0 0.00 0.04 0.04 80
20210612143010 86 213 1.0 4.0 0.00 0.04 0.04 81
20210612142511 86 196 1.0 4.0 0.00 0.04 0.04 80
20210612142009 86 226 0.0 2.0 0.00 0.04 0.04 81
20210612141600 84 182 0.0 0.0 0.00 0.00 0.04 81 1011.5
20210612141009 84 279 0.0 2.0 0.00 0.04 0.04 82
20210612140509 84 279 0.0 2.0 0.00 0.04 0.04 83
20210612140105 84 282 0.0 0.0 0.00 0.00 0.04 83 1011.4
20210612140008 85 281 0.0 1.0 0.00 0.04 0.04 83
20210612135508 85 281 0.0 1.0 0.00 0.04 0.04 82
20210612135007 85 256 0.0 2.0 0.00 0.04 0.04 81
20210612134710 85 275 1.0 0.0 0.00 0.00 0.04 81 1011.5
20210612134507 86 206 1.0 2.0 0.00 0.04 0.04 81
20210612134006 86 141 1.0 2.0 0.00 0.04 0.04 83
20210612133506 85 139 1.0 3.0 0.00 0.04 0.04 84
20210612133006 85 151 1.0 3.0 0.00 0.04 0.04 85
20210612132506 84 161 1.0 3.0 0.00 0.04 0.04 85
20210612132006 84 0 0.0 0.0 0.00 0.04 0.04 88
20210612131708 83 25 0.0 0.0 0.00 0.00 0.04 89 1011.5
20210612131505 83 97 1.0 3.0 0.00 0.04 0.04 90
20210612131005 82 104 1.0 3.0 0.00 0.04 0.04 90
20210612130504 82 110 2.0 3.0 0.00 0.04 0.04 91
20210612130004 81 116 1.0 3.0 0.00 0.04 0.04 93
20210612125504 81 109 1.0 3.0 0.00 0.04 0.04 93
20210612125003 81 92 1.0 3.0 0.00 0.04 0.04 93
20210612124514 80 83 1.0 0.0 0.00 0.00 0.04 94 1011.5
20210612124503 81 81 1.0 2.0 0.00 0.04 0.04 94
20210612124104 81 69 1.0 2.0 0.00 0.04 0.04 94
20210612123604 80 64 0.0 2.0 0.00 0.04 0.04 94
20210612123103 80 60 0.0 2.0 0.00 0.04 0.04 95
20210612123042 80 49 0.0 0.0 0.00 0.00 0.04 95 1011.4
20210612122603 80 70 0.0 2.0 0.00 0.04 0.04 95
20210612122103 80 98 0.0 2.0 0.00 0.04 0.04 95
20210612121814 79 129 0.0 0.0 0.00 0.00 0.04 95 1011.2
20210612121604 80 124 0.0 2.0 0.01 0.04 0.04 95
20210612121103 80 129 0.0 1.0 0.04 0.04 0.04 95
20210612120602 80 91 0.0 1.0 0.04 0.04 0.04 95
20210612120148 79 91 0.0 0.0 0.00 0.00 0.04 95 1011.1
20210612120101 80 91 0.0 1.0 0.04 0.04 0.04 95
20210612115601 80 91 0.0 1.0 0.04 0.04 0.04 95
20210612115101 79 83 1.0 2.0 0.04 0.04 0.04 95
20210612114601 79 52 1.0 2.0 0.04 0.04 0.04 95
20210612114100 79 334 1.0 2.0 0.04 0.04 0.04 95
20210612113600 79 290 1.0 2.0 0.04 0.04 0.04 95
20210612113202 78 94 0.0 0.0 0.00 0.00 0.04 95 1011.0
20210612113059 79 104 0.0 2.0 0.04 0.04 0.04 95
20210612112559 79 89 1.0 3.0 0.04 0.04 0.04 95
20210612112059 78 78 1.0 3.0 0.04 0.04 0.04 95